{"data":{"norad_id":68440,"epoch":"2026-09-20T03:50:33.631008Z","epoch_age_seconds":98292,"freshness":"FRESH","line1":"1 68440U 26067AA  26263.16011147  .00015863  00000+0  66167-3 0  9994","line2":"2 68440  97.4592 220.8636 0004952  89.3132 270.8672 15.23752477 26398","mean_motion":15.23752477,"eccentricity":0.0004952,"inclination_deg":97.4592,"raan_deg":220.8636,"arg_perigee_deg":89.3132,"mean_anomaly_deg":270.8672,"bstar":0.00066167,"rev_number":2639,"period_min":94.503537925996,"perigee_km":491.13071420168,"apogee_km":497.93740762041,"semimajor_km":6872.671060911,"source":"CELESTRAK","updated_at":"2026-09-20T09:00:24.205145Z"}}